Location: Miles
(41.4492°N, 81.6087°W)
Time: 19:41:01
(UTC+00:00)

Transit 2A - Pass Details

Date: 14 September 2024
Orbit: 590 x 960 km, 66.7° (Epoch: 05 October)

Event Time Altitude Azimuth Distance (km) Brightness Sun altitude
Rises 23:27:15 0° 193° (SSW) 3,355 9.4 0.9°
Reaches altitude 10° 23:29:39 10° 188° (S) 2,478 8.7 0.4°
Maximum altitude 23:35:16 53° 113° (ESE) 1,108 6.6 -0.6°
Drops below altitude 10° 23:41:19 10° 39° (NE) 2,671 8.5 -1.7°
Sets 23:43:59 0° 35° (NE) 3,639 9.2 -2.2°
